Change the Weather History Date:

Friday, March 7, 2014

  Actual Average Record
Temperature  
Mean Temperature 61 °F 55 °F  
Max Temperature 72 °F 65 °F 89 °F (2004)
Min Temperature 50 °F 45 °F 34 °F (1964)
Degree Days  
Heating Degree Days 4 10  
Month to date heating degree days 35 71  
Since 1 July heating degree days 988 1407  
Cooling Degree Days 0 0  
Month to date cooling degree days 0 0  
Year to date cooling degree days 28 9  
Growing Degree Days 11 (Base 50)    
Moisture  
Dew Point 48 °F    
Average Humidity 63    
Maximum Humidity 93    
Minimum Humidity 33    
Precipitation  
Precipitation 0.00 in 0.15 in 3.50 in (1968)
Month to date precipitation 0.71 1.21  
Year to date precipitation 4.03 8.39  
Since 1 July precipitation 4.85 12.63  
Sea Level Pressure  
Sea Level Pressure 29.99 in    
Wind  
Wind Speed 6 mph (NW)    
Max Wind Speed 22 mph    
Max Gust Speed 25 mph    
Visibility 10 miles    
Events      
T = Trace of Precipitation, MM = Missing Value Source: NWS Daily Summary

Daily Weather History Graph

Daily Weather History Graph

Search for Another Location

Airport or City:

Trip Planner

Search our weather history database for the weather conditions in past years. The results will help you decide how hot, cold, wet, or windy it might be!

Date:

Astronomy

Mar. 07, 2014 Rise Set
Actual Time 6:17 AM PST 5:57 PM PST
Civil Twilight 5:52 AM PST 6:22 PM PST
Nautical Twilight 5:23 AM PST 6:51 PM PST
Astronomical Twilight 4:54 AM PST 7:20 PM PST
Moon 10:30 AM PST (3/7) No Moon Set
Length of Visible Light 12h 30m
Length of Day
11h 40m
Waxing Crescent, 43% of the Moon is Illuminated
Mar 7
Waxing Crescent
Mar 8
First Quarter
Mar 16
Full
Mar 23
Last Quarter
Mar 30
New

Hourly Weather History & Observations

Time (PST) Temp. Dew Point Humidity Pressure Visibility Wind Dir Wind Speed Gust Speed Precip Events Conditions
12:55 AM 54.0 °F 51.1 °F 90% 30.00 in 9.0 mi Calm Calm - N/A   Clear
1:48 AM 53.6 °F 51.8 °F 94% 29.97 in 9.0 mi Calm Calm - N/A   Partly Cloudy
1:55 AM 54.0 °F 51.1 °F 90% 29.99 in 9.0 mi Calm Calm - N/A   Clear
2:55 AM 53.1 °F 51.1 °F 93% 29.98 in 10.0 mi NE 6.9 mph - N/A   Clear
3:55 AM 53.1 °F 50.0 °F 89% 29.98 in 10.0 mi ENE 4.6 mph - N/A   Clear
4:55 AM 52.0 °F 48.9 °F 89% 29.98 in 10.0 mi ENE 4.6 mph - N/A   Clear
5:55 AM 51.1 °F 46.0 °F 83% 29.99 in 10.0 mi NW 3.5 mph - N/A   Clear
6:55 AM 52.0 °F 45.0 °F 77% 30.01 in 10.0 mi Calm Calm - N/A   Clear
7:55 AM 60.1 °F 46.9 °F 62% 30.02 in 10.0 mi Calm Calm - N/A   Clear
8:55 AM 64.0 °F 48.0 °F 56% 30.04 in 10.0 mi WNW 6.9 mph - N/A   Clear
9:55 AM 68.0 °F 41.0 °F 37% 30.04 in 10.0 mi NW 4.6 mph - N/A   Clear
10:55 AM 70.0 °F 42.1 °F 36% 30.02 in 10.0 mi WNW 8.1 mph - N/A   Clear
11:55 AM 70.0 °F 45.0 °F 41% 30.00 in 10.0 mi West 11.5 mph - N/A   Clear
12:55 PM 71.1 °F 44.1 °F 38% 29.98 in 10.0 mi West 12.7 mph - N/A   Clear
1:55 PM 71.1 °F 46.0 °F 41% 29.96 in 10.0 mi West 15.0 mph - N/A   Clear
2:55 PM 69.1 °F 43.0 °F 39% 29.95 in 10.0 mi West 17.3 mph - N/A   Clear
3:55 PM 70.0 °F 39.0 °F 32% 29.95 in 10.0 mi West 18.4 mph 23.0 mph N/A   Clear
4:55 PM 70.0 °F 48.0 °F 46% 29.94 in 10.0 mi West 19.6 mph - N/A   Clear
5:55 PM 66.0 °F 48.9 °F 54% 29.96 in 10.0 mi West 8.1 mph - N/A   Clear
6:55 PM 62.1 °F 53.1 °F 72% 29.98 in 10.0 mi SE 4.6 mph - N/A   Clear
7:55 PM 59.0 °F 52.0 °F 78% 29.98 in 10.0 mi East 4.6 mph - N/A   Clear
8:55 PM 55.9 °F 51.1 °F 84% 29.99 in 9.0 mi Calm Calm - N/A   Clear
9:55 PM 55.9 °F 52.0 °F 87% 30.00 in 9.0 mi Calm Calm - N/A   Clear
10:55 PM 54.0 °F 50.0 °F 86% 30.01 in 9.0 mi NE 3.5 mph - N/A   Clear
11:55 PM 53.1 °F 48.0 °F 83% 30.01 in 10.0 mi Calm Calm - N/A   Clear